�ϑ��N����,2018/9/27,,,
�ϑ���,���J�@�^��,,,
�ϑ��n�_,4,,,
���x�v�ԍ�,A037,,,
,,,,
����,�C��,����,����,���l
9:30:00,21,6,0.5,�܂��Ă�
9:31:00,21.2,2,0.5,
9:32:00,21.2,1,0.5,
9:33:00,21.2,7,0.5,
9:34:00,21.3,1,0.5,
9:35:00,21.5,8,1,
9:36:00,21.3,8,2,
9:37:00,21.4,8,3,
9:38:00,21.5,7,0.5,
9:39:00,21.8,2,2,
9:40:00,21.4,2,2,
9:41:00,21.2,3,1,
9:42:00,21.2,2,1,
9:43:00,21,4,0.5,
9:44:00,21.4,2,1,
9:45:00,21.3,8,3,
9:46:00,21.4,6,1,
9:47:00,21.1,4,1,
9:48:00,21.2,4,2,
9:49:00,21.3,4,1,
9:50:00,21.3,3,1,
9:51:00,21.1,2,0.5,
9:52:00,21,1,0.5,
9:53:00,21.2,8,2,
9:54:00,21.2,3,2,
9:55:00,21,4,2,
9:56:00,21.1,4,1,�����_�Ȃ�
9:57:00,21.3,4,0.5,�_�����Ȃ��Ȃ��Ă���
9:58:00,21.2,0,0,
9:59:00,21.4,0,0,
10:00:00,21.5,2,0.5,
10:01:00,21.7,2,1,
10:02:00,21.3,3,0.5,
10:03:00,21.4,3,1,
10:04:00,21.3,1,1,
10:05:00,21.6,1,0.5,
10:06:00,21.9,3,1,
10:07:00,-999,-999,-999,
10:08:00,-999,-999,-999,
10:09:00,-999,0,0,
10:10:00,22.2,0,0,
10:11:00,22.1,1,0.5,
10:12:00,22.1,1,1,
10:13:00,22.1,0,0,
10:14:00,22.2,0,0,����Ă���
10:15:00,22.9,1,0.5,�܂���
10:16:00,22.7,2,0.5,
10:17:00,22.5,2,1,����Ă���
10:18:00,22.4,2,0.5,�܂���
10:19:00,22.7,0,0,����Ă���
10:20:00,23,2,0.5,
10:21:00,23,0,0,
10:22:00,23.1,2,0.5,
10:23:00,22.5,0,0,
10:24:00,22.7,2,0.5,
10:25:00,22.4,2,0,
10:26:00,22.6,2,1,
10:27:00,22.9,2,1,�܂��Ă���
10:28:00,22.6,4,1,
10:29:00,22.3,1,3,
10:30:00,22.3,2,0.5,
10:31:00,22.4,1,2,
10:32:00,22.2,2,2,
10:33:00,22.3,1,1,
10:34:00,22.2,5,2,
10:35:00,22.1,1,1,
10:36:00,22.2,2,2,
10:37:00,22.5,2,0.5,����Ă���
10:38:00,22.7,2,2,
10:39:00,22.5,2,2,
10:40:00,22.5,4,3,
10:41:00,23.1,0,0,�܂��Ă���
10:42:00,22.4,3,2,
10:43:00,22.7,0,0,
10:44:00,22.8,0,0,
10:45:00,22.6,3,2,
10:46:00,22.7,2,0.5,
10:47:00,22.9,3,0.5,����Ă���
10:48:00,22.7,3,1,
10:49:00,22.5,2,0.5,
10:50:00,22.5,2,1,
10:51:00,22.7,3,0.5,
10:52:00,22.4,2,2,
10:53:00,22.8,2,0.5,
10:54:00,22.7,2,2,
10:55:00,22.5,0,0,�܂��Ă���
10:56:00,22.7,3,1,����Ă���
10:57:00,23,2,0.5,
10:58:00,23.2,2,1,�܂��Ă���
10:59:00,23.1,0,0,
11:00:00,22.7,0,0,
11:01:00,23.2,2,1,����Ă���
11:02:00,23.1,3,0.5,
11:03:00,23.2,2,0.5,
11:04:00,23.5,0,0,
11:05:00,23.3,2,0.5,
11:06:00,23.1,2,1,
11:07:00,23.8,0,0,
11:08:00,24.1,2,1,
11:09:00,24.5,0,0,
11:10:00,25.1,2,1,
11:11:00,24.5,3,0.5,�܂��Ă���
11:12:00,24.2,3,0.5,����Ă���
11:13:00,24.4,2,1,
11:14:00,24.5,2,0.5,
11:15:00,24.3,2,1,
11:16:00,24.5,2,0.5,
11:17:00,24.7,2,2,
11:18:00,24.2,0,0,
11:19:00,24.7,2,1,
11:20:00,24.9,2,0.5,
11:21:00,25,2,1,
11:22:00,24.5,2,3,
11:23:00,25,2,1,
11:24:00,24.5,0,0,
11:25:00,25.2,3,0.5,
11:26:00,25.3,2,2,
11:27:00,24.9,3,2,�܂��Ă���
11:28:00,24.1,4,1,����Ă���
11:29:00,24.9,2,1,
11:30:00,24.4,3,1,
